User: anonymous   Login
Location: Unspecified
(0.0000°N, 0.0000°E)
Time: 08:48:20
(UTC+01:00)
Language:

Cosmos 1758 - Orbit

View from above orbital plane
View from above orbital plane
View from above satellite
View from above satellite

Ground track
Ground track

The orbit data is extracted from the following two-line orbital elements,

1 16791U 86046A   16342.16871196  .00000122  00000-0  66523-5 0  9995
2 16791  82.4715 219.1275 0017413  26.9599 333.2527 15.04247465656815
Epoch (UTC): 07 December 2016 04:02:56
Eccentricity: 0.0017413
inclination: 82.4715°
perigee height: 542 km
apogee height: 566 km
right ascension of ascending node: 219.1275°
argument of perigee: 26.9599°
revolutions per day: 15.04247465
mean anomaly at epoch: 333.2527°
orbit number at epoch: 65681

The dashed part of the orbit path shows where the satellite is in the earth's shadow,  

DLR